Location: ??????
(41.3164°N, 22.6615°E)
Time: 18:04:54
(UTC+00:00)

CAS-4A - Pass Details

Date: 09 July 2022
Orbit: 521 x 537 km, 43.0° (Epoch: 11 August)

Event Time Altitude Azimuth Distance (km) Brightness Sun altitude
Exits shadow 00:22:53 35° 290° (WNW) 859 ? -21.5°
Maximum altitude 00:24:29 76° 9° (N) 541 ? -21.4°
Drops below altitude 10° 00:28:30 10° 96° (E) 1,756 ? -21.0°
Sets 00:30:44 0° 98° (E) 2,646 ? -20.8°
